Franklin, NC

4:54 PM EST on February 20, 2018 (GMT -0500)
Franklin

Weather History for K1A5 - January, 2011

Change the Weather History Date:

Monday, January 3, 2011

  Actual Average (KTOC) Record (KTOC)
Temperature  
Mean Temperature 30 °F -  
Max Temperature 47 °F 52 °F 62 °F (2017)
Min Temperature 14 °F 34 °F 21 °F (2014)
Degree Days  
Heating Degree Days 34    
Moisture  
Dew Point 15 °F    
Average Humidity 67    
Maximum Humidity 89    
Minimum Humidity 17    
Precipitation  
Precipitation 0.00 in - - ()
Sea Level Pressure  
Sea Level Pressure 30.21 in    
Wind  
Wind Speed 0 mph (NW)    
Max Wind Speed 5 mph    
Max Gust Speed -    
Visibility 10 miles    
Events      
Averages and records for this station are not official NWS values.
T = Trace of Precipitation, MM = Missing Value Source: NWS Daily Summary

Daily Weather History Graph

Daily Weather History Graph

Search for Another Location

Airport or City:

Trip Planner

Search our weather history database for the weather conditions in past years. The results will help you decide how hot, cold, wet, or windy it might be!

Date:

Astronomy

Jan. 03, 2011 Rise Set
Actual Time 7:42 AM EST 5:33 PM EST
Civil Twilight 7:14 AM EST 6:01 PM EST
Nautical Twilight 6:42 AM EST 6:33 PM EST
Astronomical Twilight 6:12 AM EST 7:04 PM EST
Moon 7:05 AM EST (1/3) 5:05 PM EST (1/3)
Length of Visible Light 10h 47m
Length of Day
9h 51m
Waning Crescent, 0% of the Moon is Illuminated
Jan 3
Waning Crescent
Jan 4
New
Jan 12
First Quarter
Jan 19
Full
Jan 26
Last Quarter

Hourly Weather History & Observations

Time (EST) Temp. Windchill Dew Point Humidity Pressure Visibility Wind Dir Wind Speed Gust Speed Precip Events Conditions
12:00 AM 22.8 °F - 17.1 °F 79% 30.19 in 10.0 mi Calm Calm - N/A   Clear
12:20 AM 23.0 °F 17.0 °F 18.0 °F 81% 30.19 in 10.0 mi West 4.6 mph - N/A   Clear
12:40 AM 22.6 °F - 18.0 °F 82% 30.19 in 10.0 mi Calm Calm - N/A   Clear
1:00 AM 22.1 °F - 17.6 °F 83% 30.19 in 10.0 mi Calm Calm - N/A   Clear
1:20 AM 20.5 °F - 16.9 °F 86% 30.19 in 10.0 mi Calm Calm - N/A   Clear
1:40 AM 19.6 °F - 16.2 °F 87% 30.19 in 10.0 mi Calm Calm - N/A   Clear
2:00 AM 19.8 °F - 16.0 °F 85% 30.20 in 10.0 mi Calm Calm - N/A   Clear
2:20 AM 18.7 °F - 15.6 °F 88% 30.21 in 10.0 mi Calm Calm - N/A   Clear
2:40 AM 18.7 °F - 15.8 °F 89% 30.21 in 10.0 mi Calm Calm - N/A   Clear
3:00 AM 17.8 °F - 14.4 °F 86% 30.21 in 10.0 mi Calm Calm - N/A   Clear
3:40 AM 17.6 °F - 14.9 °F 89% 30.21 in 10.0 mi Calm Calm - N/A   Clear
4:00 AM 17.2 °F - 14.2 °F 88% 30.21 in 10.0 mi Calm Calm - N/A   Clear
4:20 AM 16.5 °F - 13.8 °F 89% 30.21 in 10.0 mi Calm Calm - N/A   Clear
4:40 AM 16.7 °F - 13.6 °F 88% 30.21 in 10.0 mi Calm Calm - N/A   Clear
5:00 AM 16.3 °F - 13.5 °F 88% 30.21 in 10.0 mi Calm Calm - N/A   Clear
5:20 AM 15.3 °F - 11.7 °F 86% 30.22 in 10.0 mi Calm Calm - N/A   Clear
5:40 AM 15.8 °F - 12.9 °F 88% 30.22 in 10.0 mi Calm Calm - N/A   Clear
6:00 AM 15.8 °F - 13.1 °F 89% 30.23 in 10.0 mi Calm Calm - N/A   Clear
6:20 AM 14.7 °F - 11.3 °F 86% 30.23 in 10.0 mi Calm Calm - N/A   Clear
6:40 AM 15.4 °F - 12.2 °F 87% 30.24 in 10.0 mi Calm Calm - N/A   Clear
7:00 AM 14.5 °F - 11.3 °F 87% 30.25 in 10.0 mi Calm Calm - N/A   Clear
7:20 AM 14.7 °F - 11.7 °F 88% 30.25 in 10.0 mi Calm Calm - N/A   Clear
7:40 AM 14.7 °F - 11.8 °F 88% 30.26 in 10.0 mi Calm Calm - N/A   Clear
8:00 AM 14.5 °F - 11.3 °F 87% 30.27 in 10.0 mi Calm Calm - N/A   Clear
8:20 AM 15.6 °F - 12.6 °F 88% 30.28 in 10.0 mi Calm Calm - N/A   Clear
8:40 AM 18.0 °F - 15.1 °F 88% 30.28 in 10.0 mi Calm Calm - N/A   Clear
9:00 AM 19.9 °F - 16.7 °F 87% 30.28 in 10.0 mi Calm Calm - N/A   Clear
9:40 AM 24.1 °F - 18.5 °F 79% 30.28 in 10.0 mi Calm Calm - N/A   Clear
10:00 AM 25.9 °F - 19.0 °F 75% 30.28 in 10.0 mi Calm Calm - N/A   Clear
10:20 AM 27.7 °F - 18.3 °F 68% 30.28 in 10.0 mi Calm Calm - N/A   Clear
10:40 AM 29.3 °F - 17.6 °F 62% 30.28 in 10.0 mi Calm Calm - N/A   Clear
11:00 AM 32.2 °F - 19.2 °F 59% 30.28 in 10.0 mi Calm Calm - N/A   Clear
11:20 AM 33.6 °F - 17.6 °F 52% 30.28 in 10.0 mi Calm Calm - N/A   Clear
11:40 AM 35.2 °F - 16.2 °F 46% 30.27 in 10.0 mi Calm Calm - N/A   Clear
12:00 PM 36.3 °F - 13.5 °F 39% 30.26 in 10.0 mi Calm Calm - N/A   Clear
12:20 PM 37.6 °F 35.1 °F 12.2 °F 35% 30.25 in 10.0 mi North 3.5 mph - N/A   Clear
12:40 PM 39.2 °F 37.0 °F 9.5 °F 29% 30.23 in 10.0 mi North 3.5 mph - N/A   Clear
1:00 PM 40.6 °F - 8.2 °F 26% 30.22 in 10.0 mi Calm Calm - N/A   Clear
1:20 PM 41.7 °F 39.8 °F 8.8 °F 26% 30.21 in 10.0 mi North 3.5 mph - N/A   Clear
1:40 PM 42.1 °F - 7.7 °F 24% 30.19 in 10.0 mi Calm Calm - N/A   Clear
2:00 PM 43.0 °F - 8.6 °F 24% 30.18 in 10.0 mi Calm Calm - N/A   Clear
2:20 PM 44.6 °F - 9.3 °F 24% 30.17 in 10.0 mi Calm Calm - N/A   Clear
2:40 PM 45.3 °F - 10.9 °F 25% 30.16 in 10.0 mi Calm Calm - N/A   Clear
3:00 PM 46.0 °F - 5.9 °F 19% 30.16 in 10.0 mi Calm Calm - N/A   Clear
3:20 PM 46.4 °F - 3.9 °F 17% 30.16 in 10.0 mi Calm Calm - N/A   Clear
3:40 PM 46.8 °F - 8.2 °F 21% 30.16 in 10.0 mi Calm Calm - N/A   Clear
4:00 PM 47.5 °F - 8.2 °F 20% 30.15 in 10.0 mi Calm Calm - N/A   Clear
4:20 PM 47.7 °F - 8.1 °F 20% 30.15 in 10.0 mi Calm Calm - N/A   Clear
4:40 PM 43.0 °F - 16.5 °F 34% 30.14 in 10.0 mi Calm Calm - N/A   Clear
5:00 PM 39.6 °F 36.3 °F 19.9 °F 45% 30.15 in 10.0 mi West 4.6 mph - N/A   Clear
5:20 PM 36.7 °F 32.9 °F 19.0 °F 49% 30.16 in 10.0 mi West 4.6 mph - N/A   Clear
5:40 PM 30.7 °F 26.0 °F 22.6 °F 72% 30.16 in 10.0 mi West 4.6 mph - N/A   Clear
6:00 PM 29.8 °F - 22.5 °F 74% 30.16 in 10.0 mi Calm Calm - N/A   Clear
6:20 PM 28.8 °F - 21.4 °F 74% 30.16 in 10.0 mi Calm Calm - N/A   Clear
6:40 PM 27.1 °F - 21.6 °F 80% 30.18 in 10.0 mi Calm Calm - N/A   Clear
7:20 PM 25.7 °F - 20.5 °F 81% 30.18 in 10.0 mi Calm Calm - N/A   Clear
8:00 PM 24.1 °F - 19.9 °F 84% 30.19 in 10.0 mi Calm Calm - N/A   Clear
8:20 PM 22.8 °F - 19.0 °F 85% 30.19 in 10.0 mi Calm Calm - N/A   Clear
8:40 PM 22.5 °F - 18.7 °F 85% 30.19 in 10.0 mi Calm Calm - N/A   Clear
9:00 PM 22.6 °F - 19.0 °F 86% 30.20 in 10.0 mi Calm Calm - N/A   Clear
9:20 PM 21.4 °F - 17.4 °F 85% 30.19 in 10.0 mi Calm Calm - N/A   Clear
9:40 PM 20.7 °F - 17.1 °F 86% 30.20 in 10.0 mi Calm Calm - N/A   Clear
10:00 PM 20.5 °F - 17.2 °F 87% 30.19 in 10.0 mi Calm Calm - N/A   Clear
10:20 PM 20.8 °F - 17.8 °F 88% 30.19 in 10.0 mi Calm Calm - N/A   Clear
10:40 PM 19.6 °F - 16.7 °F 89% 30.19 in 10.0 mi Calm Calm - N/A   Clear
11:20 PM 19.0 °F - 15.8 °F 87% 30.19 in 10.0 mi Calm Calm - N/A   Clear
11:40 PM 18.5 °F - 15.4 °F 88% 30.18 in 10.0 mi Calm Calm - N/A   Clear